Regional Weather Roundup
Issued by NWS

Home | Current Version | Previous Version | Graphics & Text | Print | Product List | Glossary Off
Versions: 1 2 3 4 5 6 7 8 9 10 11 12 13 14 15 16 17 18 19 20 21 22 23 24 25 26 27 28 29 30 31 32 33 34 35 36 37 38 39 40 41 42 43 44 45 46 47 48 49 50

578
ASUS43 KMKX 141720
RWRWI

WISCONSIN REGIONAL WEATHER ROUNDUP
NATIONAL WEATHER SERVICE MILWAUKEE/SULLIVAN WI
1100 AM CST THU DEC 14 2017

NOTE: "FAIR" INDICATES FEW OR NO CLOUDS BELOW 12,000 FEET WITH NO
SIGNIFICANT WEATHER AND/OR OBSTRUCTIONS TO VISIBILITY.

WIZ001-002-006>008-014>016-023>028-141800-
NORTHWEST WISCONSIN

CITY           SKY/WX    TMP DP  RH WIND       PRES   REMARKS
SUPERIOR ARPT  LGT SNOW  18  14  84 W6        30.02F WCI  10
ASHLAND        LGT SNOW  17  13  84 SW9       30.00F FOG     WCI   6
HAYWARD        FLURRIES  19  13  77 SW5       29.97F WCI  12
SIREN          CLOUDY    18  13  84 W6        30.02S WCI   9
CUMBERLAND     LGT SNOW  19  16  86 SW5       29.99F WCI  13
RICE LAKE      FLURRIES  19  18  95 CALM      30.02F
CHETEK         CLOUDY    19  16  88 SW5       30.02S WCI  12
LADYSMITH      FLURRIES  19  16  88 CALM      30.01F
EAU CLAIRE     CLOUDY    19  16  88 SW7       30.03F WCI  10
MENOMONIE      PTSUNNY   24  19  84 W7        30.04F WCI  15
NEW RICHMOND   LGT SNOW  19  17  92 W6        30.03F WCI  11
OSCEOLA        LGT SNOW  19  15  82 W5        30.06F WCI  13
$$

WIZ003>005-009-010-017-018-141800-
NORTH CENTRAL WISCONSIN

CITY           SKY/WX    TMP DP  RH WIND       PRES   REMARKS
MANITOWISH WTR LGT SNOW  13  10  87 W9        29.94S WCI   1
ARBOR VITAE    LGT SNOW  17  13  86 NW6       29.94S WCI   8
WOODRUFF       LGT SNOW  17  13  86 NW6       29.94S WCI   8
RHINELANDER    FLURRIES  15  12  88 W9        29.94F WCI   3
EAGLE RIVER    FLURRIES  15  10  81 W9        29.93S WCI   3
LAND O LAKES   FLURRIES  16  10  77 NW8       29.93F WCI   5
PHILLIPS       FLURRIES  13  12  95 CALM      29.96F
TOMAHAWK       LGT SNOW  14  11  89 CALM      29.97S
MEDFORD        LGT SNOW  14  12  91 SW5       29.97F WCI   7
MERRILL        LGT SNOW  15  11  85 CALM      29.99S
$$

WIZ029-030-035-036-043>047-141800-
CENTRAL WISCONSIN

CITY           SKY/WX    TMP DP  RH WIND       PRES   REMARKS
WAUSAU         CLOUDY    15  11  83 NW5       29.98F WCI   8
MOSINEE        CLOUDY    14  12  92 W5        30.01S WCI   6
MARSHFIELD     CLOUDY    15  12  88 W7        30.00S WCI   5
STEVENS POINT  CLOUDY    14  14  98 SW3       30.02F
WAUPACA        MOSUNNY   21  14  74 SW5       30.05S WCI  15
WAUTOMA        MOSUNNY   23  17  78 CALM      30.06S
WISC RAPIDS    MOSUNNY   15  10  80 SW5       30.05S WCI   8
CAMP DOUGLAS   MOSUNNY   23  12  63 S3        30.04F
$$

WIZ011>013-019>022-031-037>040-048>050-141800-
NORTHEAST WISCONSIN

CITY           SKY/WX    TMP DP  RH WIND       PRES   REMARKS
ANTIGO         FLURRIES  14  11  87 NW6       29.96F WCI   5
SHAWANO        SUNNY     19  10  68 NW6       30.03F WCI  11
OCONTO         SUNNY     14  12  91 W5        30.03F WCI   6
STURGEON BAY   SUNNY     21  11  65 W9        30.02F WCI  11
GREEN BAY      SUNNY     15   9  76 CALM      30.05S
MANITOWOC      SUNNY     23  12  62 W5        30.05F WCI  17
APPLETON       MOSUNNY   14   7  73 W5        30.02S WCI   6
CLINTONVILLE   SUNNY     16  10  79 W5        30.03F WCI   9
OSHKOSH        SUNNY     16  10  77 W5        30.04F WCI   9
$$

WIZ032>034-041-042-053>061-141800-
SOUTHWEST WISCONSIN

CITY           SKY/WX    TMP DP  RH WIND       PRES   REMARKS
LA CROSSE      MOSUNNY   21  14  74 S7        30.08F WCI  12
SPARTA         CLOUDY    21  14  75 SW5       30.07F WCI  14
VIROQUA        SUNNY     18  18  98 CALM      30.04F
BOSCOBEL       SUNNY     22  14  71 CALM      30.10F
PRAIRIE DU CHI SUNNY     22  15  73 CALM      30.09F
PLATTEVILLE    SUNNY     23  15  71 CALM      30.07F
$$

WIZ056-057-062-063-064-067-068-141800-
SOUTH CENTRAL WISCONSIN

CITY           SKY/WX    TMP DP  RH WIND       PRES   REMARKS
REEDSBURG      SUNNY     21  14  75 CALM      30.06F
BARABOO/DELLS  SUNNY     21  13  71 SW3       30.05F
LONE ROCK      SUNNY     20  15  81 W5        30.09F WCI  13
MINERAL POINT  SUNNY     25  18  74 W3        30.06F
MADISON        MOSUNNY   22  11  62 CALM      30.07R
MIDDLETON      MOSUNNY   24  14  66 CALM      30.07S
WATERTOWN      SUNNY     19  13  77 CALM      30.07S
MONROE         SUNNY     23  12  63 CALM      30.06F
JANESVILLE     PTSUNNY   23  14  68 CALM      30.08S
$$

WIZ051-052-058>065-066-070>072-141800-
SOUTHEAST WISCONSIN

CITY           SKY/WX    TMP DP  RH WIND       PRES   REMARKS
MILWAUKEE      MOSUNNY   22  10  60 W6        30.07S WCI  14
WAUKESHA       SUNNY     18  10  73 W3        30.07S
MILWAUKEE/TIMM SUNNY     19   7  58 CALM      30.08R
RACINE         SUNNY     22  10  60 NW9       30.09S WCI  12
BURLINGTON     SUNNY     22  13  69 NW7       30.07F WCI  14
KENOSHA        SUNNY     22  11  62 NW7       30.07F WCI  13
FOND DU LAC    SUNNY     19   9  65 CALM      30.05F
SHEBOYGAN      SUNNY     16  10  77 NW5       30.04F WCI   9
WEST BEND      SUNNY     19  10  68 W5        30.04F WCI  13
JUNEAU         SUNNY     14  10  81 CALM      30.06F
$$

LSZ147-162-141800-
LAKE SUPERIOR

STATION/POSITION TIME  TEMP    WIND        PRES    WAVE
                       AIR SEA DIR/SP/G            HT/PER
                 (UTC) (F)     (DEG/KT/KT) (MB)    (FT/S)
DEVILS ISLAND    1700   20     280/  8/ 11 1016.6F
SAXON HARBOR     1630   18                 1015.9R
$$

LMZ867-665-643>646-141800-
LAKE MICHIGAN

STATION/POSITION TIME  TEMP    WIND        PRES    WAVE
                       AIR SEA DIR/SP/G            HT/PER
                 (UTC) (F)     (DEG/KT/KT) (MB)    (FT/S)
NORTHPORT PIER   1655   20     300/  7/ 15 1015.6F
KEWAUNEE LAKESHO 1654   19     280/  5/  7 1016.4F
SHEBOYGAN LAKESH 1700   17     300/  6/  7 1018.6F
PORT WASHINGTON  1630   19     290/  4/  7 1019.3F
MILWAUKEE LAKESH 1700   20     310/  4/  5   N/A
KENOSHA   LAKESH 1700   21     340/  8/ 13 1018.6
$$

TC  - TEMPERATURE IN CELSIUS
VSB - VISIBILITY IN STATUTE MILES
WCI - WIND CHILL INDEX
HX  - HEAT INDEX





USA.gov is the U.S. government's official web portal to all federal, state and local government web resources and services.